Terminal Aerodrome Forecast
Issued by NWS Caribou, ME

Home | Current Version | Previous Version | Text Only | Print | Product List | Glossary On
Versions: 1 2 3 4 5 6 7 8 9 10 11 12 13 14 15
000
FTUS41 KCAR 270548 CCA
TAFBGR
TAF COR
KBGR 270548Z 2706/2806 36007KT P6SM -DZ OVC007
     FM270800 36007KT P6SM SCT007 BKN015
     FM271600 01008KT P6SM SCT025
     FM272000 05004KT P6SM SCT025=

USA.gov is the U.S. government's official web portal to all federal, state and local government web resources and services.